This demonstration page uses our WeatherBlox Daily Observations layout. Learn more.

Left ArrowRight Arrow

39.92423, -83.80882

Hourly Observations for June 11, 2015

Temp ( °F °C ) Dew Point ( °F °C ) Humidity (%) Winds ( mph kmh ) Pressure ( in mb ) Visibility ( mi km ) Precip ( " mm )
12:56 am 00:56 Clear 75 23.8 62 16.6 64 64 SSW 10 17 29.85 1011 9 14.48406 0 0
1:56 am 01:56 Clear 74 23.3 62 16.6 66 66 SSW 8 13 29.88 1012 9 14.48406 0 0
2:56 am 02:56 Clear 73 22.7 62 16.6 69 69 SSW 8 13 29.88 1012 9 14.48406 0 0
3:56 am 03:56 Clear 72 22.2 62 16.6 71 71 SSW 8 13 29.88 1012 9 14.48406 0 0
4:56 am 04:56 Clear 69 20.5 62 16.6 78 78 W 3 6 29.89 1012 8 12.87472 0 0
5:56 am 05:56 Clear 67 19.4 62 16.6 84 84 Calm 29.91 1013 8 12.87472 0 0
6:56 am 06:56 Sunny with Mist and Fog 67 19.4 63 17.2 87 87 Calm 29.92 1013 6 9.65604 0 0
7:56 am 07:56 Sunny 73 22.7 64 17.7 73 73 SSW 5 7 29.93 1013 7 11.26538 0 0
8:56 am 08:56 Sunny 76 24.4 64 17.7 66 66 SW 8 13 29.94 1014 7 11.26538 0 0
9:56 am 09:56 Sunny 80 26.6 66 18.8 62 62 SW 8 13 29.95 1014 7 11.26538 0 0
10:56 am 10:56 Sunny 84 28.8 67 19.4 57 57 SW 13 20 29.95 1014 8 12.87472 0 0
11:56 am 11:56 Sunny 87 30.5 64 17.7 46 46 WSW 12 19 29.94 1014 8 12.87472 0 0
12:56 pm 12:56 Sunny 89 31.6 66 18.8 47 47 SW 10 17 29.93 1014 7 11.26538 0 0
1:56 pm 13:56 Sunny 90 32.2 65 18.3 44 44 WSW 12 19 29.91 1013 8 12.87472 0 0
2:56 pm 14:56 Sunny 91 32.7 65 18.3 42 42 S 10 17 29.91 1013 8 12.87472 0 0
3:56 pm 15:56 Mostly Sunny 91 32.7 65 18.3 42 42 VRB 6 9 29.9 1012 8 12.87472 0 0
4:56 pm 16:56 Mostly Sunny 91 32.7 65 18.3 42 42 SW 8 13 29.89 1012 8 12.87472 0 0
5:56 pm 17:56 Mostly Sunny 91 32.7 63 17.2 40 40 S 8 13 29.88 1012 8 12.87472 0 0
6:56 pm 18:56 Sunny 89 31.6 65 18.3 45 45 S 7 11 29.88 1012 8 12.87472 0 0
7:56 pm 19:56 Mostly Sunny 84 28.8 63 17.2 50 50 S 8 13 29.88 1012 8 12.87472 0 0
8:56 pm 20:56 Sunny 81 27.2 62 16.6 52 52 S 5 7 29.88 1012 8 12.87472 0 0
9:56 pm 21:56 Clear 80 26.6 64 17.7 58 58 S 3 6 29.88 1012 9 14.48406 0 0
10:56 pm 22:56 Clear 79 26.1 66 18.8 64 64 S 6 9 29.89 1012 9 14.48406 0 0
11:56 pm 23:56 Clear 78 25.5 67 19.4 69 69 S 6 9 29.88 1012 9 14.48406 0 0

Powered by AerisWeather